Location: Home
(42.5358°N, 72.7383°W)
Time: 23:24:28
(UTC-05:00)

N. Korean satellite - Pass Details

Date: 30 October 2021
Orbit: 447 x 495 km, 97.3° (Epoch: 30 November)

Event Time Altitude Azimuth Distance (km) Brightness Sun altitude
Rises 05:00:00 0° 34° (NE) 2,578 10.8 -26.7°
Reaches altitude 10° 05:03:19 10° 67° (ENE) 1,678 10.2 -26.1°
Maximum altitude 05:04:43 12° 90° (E) 1,557 10.1 -25.8°
Drops below altitude 10° 05:06:06 10° 113° (ESE) 1,663 10.1 -25.6°
Sets 05:09:20 0° 147° (SSE) 2,521 10.6 -25.0°
